Regional Weather Roundup
Issued by NWS Upton, NY

Current Version | Previous Version | Text Only | Print | Product List | Glossary On
Versions: 1 2 3 4 5 6 7 8 9 10 11 12 13 14 15 16 17 18 19 20 21 22 23 24 25 26 27
000
ASUS41 KOKX 151609
RWROKX

REGIONAL WEATHER ROUNDUP
NATIONAL WEATHER SERVICE NEW YORK NY
1100 AM EST FRI DEC 15 2017

NOTE: "FAIR" INDICATES FEW OR NO CLOUDS BELOW 12,000 FEET WITH NO
SIGNIFICANT WEATHER AND/OR OBSTRUCTIONS TO VISIBILITY.

NYZ071-072-176-178-NJZ106-104-151700-
NEW YORK CITY METRO AREA

CITY           SKY/WX    TMP DP  RH WIND       PRES   REMARKS
Central Park   CLOUDY    25  11  55 CALM      30.10F
Bronx Bot Gard   N/A     28  12  50 NE5       30.10S WCI  23
Bronx Lehman C   N/A     27  12  54 NW1         N/A
LaGuardia APRT CLOUDY    27  13  55 NW6       30.09F WCI  20
Queens College   N/A     27  14  59 S3          N/A
Kennedy INTL   CLOUDY    27  13  55 CALM      30.11F
Breezy Point     N/A    N/A N/A N/A W5          N/A
Brooklyn Coll    N/A     27  12  54 W3          N/A
Staten Island    N/A     25  10  54 CALM        N/A
Newark/Liberty CLOUDY    25  10  53 CALM      30.09F
Teterboro      CLOUDY    25   9  50 VRB3      30.09F
$$

NYZ177-179-078>081-151700-
LONG ISLAND NEW YORK

CITY           SKY/WX    TMP DP  RH WIND       PRES   REMARKS
Jones Beach      N/A    N/A N/A N/A NW1         N/A
Wantagh          N/A     28  16  59 N1          N/A
Matinecock PT    N/A    N/A N/A N/A SW3         N/A
Farmingdale    MOSUNNY   26  15  63 CALM      30.09F
MacArthur/ISP  CLOUDY    28  15  58 CALM      30.08F
Shirley        CLOUDY    29  17  61 N5        30.09F WCI  24
Mt Sinai Harb    N/A    N/A N/A N/A CALM        N/A
Westhampton    MOSUNNY   29  15  56 NE5       30.10F WCI  24
East Hampton   FAIR      26  12  56 CALM      30.09F
Southold         N/A     28  14  54 CALM        N/A
Montauk          N/A     30  17  58 CALM      30.10F
$$

NYZ052-065-067-151700-
HUDSON VALLEY

CITY           SKY/WX    TMP DP  RH WIND       PRES   REMARKS
White Plains   CLOUDY    23  11  60 VRB3      30.05F
Larchmont Harb   N/A    N/A N/A N/A SE2         N/A
Croton On Huds   N/A    N/A N/A N/A SW3         N/A
Somers           N/A     23  12  63 S3          N/A
Brewster         N/A     21  10  63 S3          N/A
Newburgh       CLOUDY    19  12  73 W6        30.07F WCI  11
Montgomery     CLOUDY    20  10  65 S5        30.05F WCI  13
Otisville        N/A     19   9  63 S3          N/A
Warwick          N/A     23  12  63 SW2         N/A
Suffern          N/A     23  10  58 S2          N/A
Poughkeepsie   CLOUDY    20  10  65 CALM      30.08F
Albany         CLOUDY    18   8  65 SE7       30.07F WCI   9
$$

NJZ001-105-106-008-010-013-015-019>022-104-151700-
NEW JERSEY

CITY           SKY/WX    TMP DP  RH WIND       PRES   REMARKS
Newark/Liberty CLOUDY    25  10  53 CALM      30.09F
Teterboro      CLOUDY    25   9  50 VRB3      30.09F
Caldwell       CLOUDY    23   9  55 CALM      30.09F
Somerville     CLOUDY    24  13  62 CALM      30.06F
Linden         FAIR      25  10  54 CALM      30.09F
Perth Amboy      N/A    N/A N/A N/A MISG        N/A
Sussex         MOSUNNY   20  11  68 CALM      30.04F
Andover        NOT AVBL
Trenton        CLOUDY    25  10  53 CALM      30.08F
Millville      CLOUDY    27  13  55 NE6       30.07F WCI  20
Atlantic City  CLOUDY    28  12  51 NE3       30.09F
Wrightstown    CLOUDY    25  10  53 CALM      30.06F
Toms River     CLOUDY    25  12  58 CALM      30.09F
Belmar         CLOUDY    25  11  55 CALM        N/A
$$

PAZ047>061-062-071-151700-
EASTERN PENNSYLVANIA

CITY           SKY/WX    TMP DP  RH WIND       PRES   REMARKS
Philadelphia   CLOUDY    28  10  46 SE3       30.09F
Allentown      CLOUDY    22  11  62 CALM      30.06F
Scranton       CLOUDY    17  10  74 CALM      29.99F
$$

CTZ002-004>006-009-010-012-RIZ004-006-007-MAZ004-011-015-151700-
SOUTHERN NEW ENGLAND
 IN CT

CITY           SKY/WX    TMP DP  RH WIND       PRES   REMARKS
Bradley INTL   CLOUDY    21   9  59 CALM      30.08F
Hartford       CLOUDY    20  10  65 SE3       30.10F
Danbury        CLOUDY    23  10  57 CALM      30.07F
Wtrbury/Oxford CLOUDY    24  11  57 S5        30.05F WCI  18
Norwalk Harbor   N/A    N/A N/A N/A N1          N/A
Bridgeport     MOSUNNY   27  13  55 CALM      30.10F
Meriden        MOSUNNY   20   9  62 CALM      30.10F
New Haven      CLOUDY    26  11  52 E5        30.09F WCI  20
Chester        FAIR      25   9  50 CALM      30.07F
Groton         CLOUDY    26  10  50 CALM      30.10F
Wilimantic     PTSUNNY   20   9  62 S3        30.09F

 IN RI

CITY           SKY/WX    TMP DP  RH WIND       PRES   REMARKS
Providence     CLOUDY    22  11  62 S3        30.11F
Block Island   MOSUNNY   31  16  54 N5        30.10F WCI  26
Westerly       MOSUNNY   26  13  57 CALM      30.11F
 IN MA

CITY           SKY/WX    TMP DP  RH WIND       PRES   REMARKS
Boston         CLOUDY    24  10  55 SW5       30.09F WCI  18
Worcester      CLOUDY    20   9  62 SW3       30.00F
Westfield      CLOUDY    19  11  70 S5        30.07F WCI  12
Provincetown   CLOUDY    26  17  68 SW3       30.10F
Nantucket      MOSUNNY   28  17  63 W9        30.10F WCI  19
$$

ANZ330-335-338-340-345-350-353-355-151700-
COASTAL MARINE OBSERVATIONS


STATION/POSITION TIME  SKY/WX   TEMP    WIND        PRES    VSBY  WAVE
                                AIR SEA DIR/SP/G                  HT/PER
                 (UTC)          (F)     (DEG/KT/KT) (MB)    (MI)  (FT/S)
NY HARB ENTRANCE 1450            29 49  260/  8/ 10 1019.3          1/ 8
20 S FIRE ISLAND 1450            31 51  150/  4/  6 1019.8          2/ 8
GREAT SOUTH BAY  1430            25 45  350/  4/  4   N/A
HUDSON CANYON    1550            39 56  230/  2/  6 1018.0          3/10
KINGS POINT      1536            25 42  210/  3/  4 1020.2
EXECUTION ROCKS  1545            27     160/  4/  8   N/A
WESTERN LI SOUND NOT AVBL
CENTRAL LI SOUND NOT AVBL
ROBBINS REEF     1536            24     300/  5/  6 1020.4
$$


>>>>>>>>>>>>>>>>>>>>>>>>>>>> KEY <<<<<<<<<<<<<<<<<<<<<<<<<<<
>                                                          <
>     SKY/WX - Sky Condition/Present Weather               <
>     TMP    - Temperature in Fahrenheit                   <
>     DP     - Dew Point in Fahrenheit                     <
>     RH     - Relative Humidity in Percent                <
>     WIND   - Direction (from) and Speed in MPH           <
>     PRES   - Mean Sea Level Pressure (inches of Hg)      <
>     WCI    - Wind Chill Index                            <
>     VSB    - VISIBILITY IN MILES                         <
>     HX     - HEAT INDEX                                  <
>     TC     - TEMPERATURE IN CELSIUS                      <
>     VRB    - VARIABLE WIND DIRECTION                     <
>                                                          <
>>>>>>>>>>>>>>>>>>>>>>>>>>>> KEY <<<<<<<<<<<<<<<<<<<<<<<<<<<




USA.gov is the U.S. government's official web portal to all federal, state and local government web resources and services.